This is the latest recevied weather packets stored in our database for station/object KB2FWP. If no packets are shown the sender has not sent any weather packets the latest 10 day(s).
| Time | Temp. | Humidity | Pressure | Rain* | Wind** | Luminosity | Snow |
|---|---|---|---|---|---|---|---|
| 1778160618 | 12.22° C | 88% | 1012.1 hPa | 0 mm | - | - | - |
| 1778159718 | 11.67° C | 89% | 1012.4 hPa | 0 mm | - | - | - |
| 1778158824 | 11.11° C | 89% | 1012.5 hPa | 0 mm | - | - | - |
| 1778157919 | 11.11° C | 90% | 1012.3 hPa | 0 mm | - | - | - |
| 1778157015 | 10.56° C | 91% | 1012.3 hPa | 0 mm | - | - | - |
| 1778156113 | 10.56° C | 92% | 1012 hPa | 0 mm | - | - | - |
| 1778155212 | 10.56° C | 92% | 1011.9 hPa | 0 mm | - | - | - |
| 1778154310 | 10.56° C | 93% | 1011.8 hPa | 0 mm | - | - | - |
| 1778153414 | 10.56° C | 93% | 1011.6 hPa | 0 mm | - | - | - |
| 1778152515 | 10° C | 93% | 1011.6 hPa | 0.25 mm | - | - | - |
| 1778151618 | 10° C | 93% | 1011.4 hPa | 0.51 mm | - | - | - |
| 1778150705 | 10° C | 93% | 1011.3 hPa | 0.51 mm | - | - | - |
| 1778149804 | 10° C | 93% | 1011.3 hPa | 0.51 mm | - | - | - |
| 1778148902 | 10° C | 93% | 1011 hPa | 0.25 mm | - | - | - |
| 1778148003 | 10° C | 93% | 1010.5 hPa | 0 mm | - | - | - |
| 1778147160 | 10° C | 93% | 1010.4 hPa | 0 mm | - | - | - |
| 1778146257 | 10.56° C | 93% | 1010.4 hPa | 0 mm | - | - | - |
| 1778145355 | 10.56° C | 93% | 1010.4 hPa | 0 mm | - | - | - |
| 1778144459 | 10.56° C | 93% | 1010.7 hPa | 0 mm | - | - | - |
| 1778143553 | 10.56° C | 93% | 1010.4 hPa | 0.25 mm | - | - | - |
| 1778142650 | 10.56° C | 93% | 1009.9 hPa | 0.25 mm | - | - | - |
| 1778141748 | 10.56° C | 93% | 1010.1 hPa | 0.25 mm | - | - | - |
| 1778140846 | 10.56° C | 93% | 1010.2 hPa | 0.51 mm | - | - | - |
| 1778139952 | 11.11° C | 92% | 1010.3 hPa | 1.78 mm | - | - | - |
| 1778139044 | 11.11° C | 92% | 1010.1 hPa | 4.32 mm | - | - | - |
* Rain latest hour (hover to see other rain measurements)
** Current wind speed in m/s (hover to see current wind gust speed)